This is the latest recevied weather packets stored in our database for station/object N3WXO-1. If no packets are shown the sender has not sent any weather packets the latest 10 day(s).
| Time | Temp. | Humidity | Pressure | Rain* | Wind** | Luminosity | Snow |
|---|---|---|---|---|---|---|---|
| 1777505117 | 11.67° C | 95% | 1009.4 hPa | 0.51 mm | - | 0 W/m² | - |
| 1777504825 | 11.67° C | 95% | 1009.4 hPa | 0.76 mm | - | 0 W/m² | - |
| 1777504516 | 11.67° C | 95% | 1009.2 hPa | 0.76 mm | - | 5 W/m² | - |
| 1777504221 | 11.67° C | 95% | 1009.2 hPa | 0.51 mm | - | 0 W/m² | - |
| 1777503927 | 11.67° C | 95% | 1009.3 hPa | 0.51 mm | - | 0 W/m² | - |
| 1777503616 | 11.67° C | 95% | 1009.3 hPa | 0.25 mm | - | 0 W/m² | - |
| 1777503319 | 11.67° C | 95% | 1009.3 hPa | 0.25 mm | - | 0 W/m² | - |
| 1777503028 | 11.67° C | 96% | 1009.3 hPa | 0.25 mm | - | 5 W/m² | - |
| 1777502719 | 11.67° C | 96% | 1009.2 hPa | 0.25 mm | - | 7 W/m² | - |
| 1777502423 | 11.67° C | 95% | 1009.2 hPa | 0.25 mm | - | 12 W/m² | - |
| 1777502130 | 11.67° C | 95% | 1009.3 hPa | 0.25 mm | - | 12 W/m² | - |
| 1777501820 | 12.22° C | 96% | 1009.3 hPa | 0.25 mm | - | 21 W/m² | - |
| 1777501529 | 12.22° C | 96% | 1009.4 hPa | 0.25 mm | - | 21 W/m² | - |
| 1777501234 | 12.22° C | 95% | 1009.4 hPa | 0 mm | - | 11 W/m² | - |
| 1777500922 | 11.67° C | 95% | 1009.6 hPa | 0 mm | - | 11 W/m² | - |
| 1777500630 | 11.67° C | 95% | 1009.5 hPa | 0 mm | - | 19 W/m² | - |
| 1777500317 | 11.67° C | 95% | 1009.6 hPa | 0.25 mm | - | 19 W/m² | - |
| 1777500026 | 11.67° C | 95% | 1009.6 hPa | 0.25 mm | - | 18 W/m² | - |
| 1777499730 | 11.67° C | 95% | 1009.7 hPa | 0.51 mm | - | 21 W/m² | - |
| 1777499434 | 11.67° C | 95% | 1009.7 hPa | 0.51 mm | - | 39 W/m² | - |
| 1777499120 | 11.67° C | 95% | 1009.6 hPa | 0.76 mm | - | 44 W/m² | - |
| 1777498833 | 11.67° C | 95% | 1009.7 hPa | 0.76 mm | - | 32 W/m² | - |
| 1777498521 | 11.67° C | 95% | 1010 hPa | 0.76 mm | - | 26 W/m² | - |
| 1777498218 | 11.67° C | 95% | 1010 hPa | 0.76 mm | - | 21 W/m² | - |
| 1777497932 | 11.67° C | 94% | 1010 hPa | 0.76 mm | - | 18 W/m² | - |
* Rain latest hour (hover to see other rain measurements)
** Current wind speed in m/s (hover to see current wind gust speed)